Location: Hanover
(52.3667°N, 9.7167°E)
Time: 05:12:08
(UTC+02:00)

Envisat - Pass Details

Date: 20 September 2024
Orbit: 762 x 764 km, 98.3° (Epoch: 04 October)

Event Time Altitude Azimuth Distance (km) Brightness Sun altitude
Rises 02:57:20 0° 29° (NNE) 3,239 7.4 -32.5°
Reaches altitude 10° 03:01:08 10° 59° (ENE) 2,305 6.2 -32.2°
Maximum altitude 03:03:17 13° 84° (E) 2,126 5.7 -32.0°
Drops below altitude 10° 03:05:25 10° 109° (ESE) 2,298 5.6 -31.8°
Enters shadow 03:05:45 - 113° (ESE) 2,353 5.6 -31.8°
